SPOT 6

Last updated on Wed Jul 09 2025 00:02:28 GMT+0000 (Coordinated Universal Time)

1 38755U 12047A 25189.50486833 .00000232 00000+0 59568-4 0 9997 2 38755 98.1764 256.9920 0001644 101.5521 258.5863 14.58577722682953
UTC large
Height (km)
Speed (km/s)
/
Latitude / Longitude
Inclination (degrees)
Orbital Period (minutes)
Azimuth
Elevation
Range (km)
Doppler Factor

Next 0 passes for location: London (51.5072 / 0.1276)

Sorry there are no passes over London.